{"data":{"norad_id":68657,"epoch":"2026-05-25T04:15:46.958112Z","epoch_age_seconds":52850,"freshness":"FRESH","line1":"1 68657U 26076B   26145.17762683  .00000079  00000+0  12987-3 0  9996","line2":"2 68657  86.5001  51.6746 0001653  86.8642 273.2687 13.33928948  6328","mean_motion":13.33928948,"eccentricity":0.0001653,"inclination_deg":86.5001,"raan_deg":51.6746,"arg_perigee_deg":86.8642,"mean_anomaly_deg":273.2687,"bstar":0.00012987,"rev_number":632,"period_min":107.95177675385,"perigee_km":1130.7386950768,"apogee_km":1133.2215397958,"semimajor_km":7510.1171174363,"source":"CELESTRAK","updated_at":"2026-05-25T13:38:07.995359Z"}}